Regional Weather Roundup
Issued by NWS

Home | Current Version | Previous Version | Text Only | Print | Product List | Glossary Off
Versions: 1 2 3 4 5 6 7 8 9 10 11 12 13 14 15 16 17 18 19 20 21 22 23 24 25 26 27 28 29 30 31 32 33 34 35 36 37 38 39 40 41 42 43 44 45 46 47 48 49 50

887
ASUS43 KFSD 251302
RWRSD

WEATHER ROUNDUP FOR SOUTH DAKOTA
NATIONAL WEATHER SERVICE SIOUX FALLS SD
800 AM CDT MON SEP 25 2017

NOTE: "FAIR" INDICATES FEW OR NO CLOUDS BELOW 12,000 FEET WITH NO
SIGNIFICANT WEATHER AND/OR OBSTRUCTIONS TO VISIBILITY.


SDZ001>005-009-010-012>017-251400-
NORTHWEST AND NORTH CENTRAL SOUTH DAKOTA

CITY           SKY/WX    TMP DP  RH WIND       PRES   REMARKS
FAITH            N/A     44  44 100 E5        30.14S
MOBRIDGE       CLOUDY    50  47  89 N5        30.12S
$$

SDZ012>016-024>037-041>051-057-063-072>074-251400-
SOUTHWEST AND SOUTH CENTRAL SOUTH DAKOTA

CITY           SKY/WX    TMP DP  RH WIND       PRES   REMARKS
RAPID CTY ARPT CLOUDY    45  43  93 NE3       30.13S
PIERRE         CLOUDY    47  44  90 NE7       30.11F
CUSTER         CLOUDY    37  35  92 CALM      30.11S FOG
ELLSWORTH AFB  CLOUDY    44  44 100 CALM      30.12
PHILIP         CLOUDY    47  44  90 N8        30.13F
PINE RIDGE     CLOUDY    44  43  96 NE8       30.13R
SPEARFISH      CLOUDY    41  41 100 CALM      30.13S
WINNER         LGT RAIN  48  47  96 N15       30.07F
$$

SDZ004>011-016>023-039-040-251400-
NORTHEAST SOUTH DAKOTA

CITY           SKY/WX    TMP DP  RH WIND       PRES   REMARKS
ABERDEEN       CLOUDY    49  47  93 N7        30.12R
WATERTOWN      CLOUDY    48  47  96 N13       30.07R
BROOKINGS      LGT RAIN  49  48  97 N12       30.05R
SISSETON         N/A     50  48  93 N9        30.08F
$$

SDZ017-020-022-023-036>040-048>070-251400-
SOUTHEAST SOUTH DAKOTA

CITY           SKY/WX    TMP DP  RH WIND       PRES   REMARKS
SIOUX FALLS    LGT RAIN  53  52  96 NE8       30.02R
HURON          CLOUDY    50  47  89 N12       30.08S
CHAMBERLAIN    CLOUDY    50  48  92 N14G21    30.09F
MITCHELL       CLOUDY    50  49  96 N13       30.06R
YANKTON        LGT RAIN  53  52  96 N9        30.02F
$$

ABBREVIATIONS USED IN REMARKS
   TC - TEMPERATURE IN CELSIUS
  WCI - WIND CHILL INDEX
   HX - HEAT INDEX
  VSB - VISIBILITY





USA.gov is the U.S. government's official web portal to all federal, state and local government web resources and services.